Welcome to the New NWS' Forecast!
Most changes are behind the scenes, but click here for differences you might notice.
Latest weather observations around

Seattle, Seattle-Tacoma International Airport (KSEA)

Using English Units (Switch to International System of Units)
Date/ Time (PDT) Wind (mph) Vis. (mi) Weather Sky Cond. Temp (°F) Rel. Humidity Wind Chill (°F) Heat Index (°F) Pressure Precip. (in)
Air Dwpt 6 hour Altimeter (inHg) Sea level (inHg) 1 hr 3 hr 6 hr
Max Min
Oct 23 00:14 S 5 0.75 Fog/Mist BKN001 43 41     93% 40   29.87        
Oct 22 23:53 S 3 2 Fog/Mist SCT001 43 42     97% 41   29.87 29.9      
Oct 22 23:43 Calm 2 Fog/Mist FEW003 44 42     93%     29.88        
Oct 22 22:53 Calm 2 Fog/Mist CLR 45 43     93%     29.88 29.9      
Oct 22 21:53 W 5 2 Fog/Mist CLR 44 42     93% 41   29.88 29.91      
Oct 22 20:53 Calm 4 Fog/Mist CLR 46 44     93%     29.88 29.91      
Oct 22 19:53 Calm 5 Fog/Mist FEW001 46 44     93%     29.89 29.91      
Oct 22 19:28 Calm 3 Fog/Mist SKC 47 45     93%     29.89        
Oct 22 18:53 Calm 2 Fog/Mist SKC 47 45     93%     29.89 29.91      
Oct 22 18:08 Calm 0.5 Fog SKC 49 47     93%     29.89        
Oct 22 17:03 Calm 2 Fog/Mist SCT002 50 48     93%     29.89        
Oct 22 16:53 Calm 1.75 Fog/Mist BKN002 50 48     93%     29.89 29.91      
Oct 22 16:29 Calm 1.75 Fog/Mist BKN002 50 48     93%     29.9        
Oct 22 15:53 W 3 1.25 Fog/Mist BKN002 50 48     93%     29.91 29.93      
Oct 22 15:33 WSW 5 1.75 Fog/Mist BKN003 50 48     93%     29.91        
Oct 22 14:53 WSW 5 2 Fog/Mist FEW005 51 49     92%     29.92 29.94      
Oct 22 14:45 WSW 6 2 Fog/Mist SCT005 52 48     86%     29.92        
Oct 22 14:22 WSW 3 2 Fog/Mist BKN005 52 49     89%     29.93        
Oct 22 14:11 W 3 2 Fog/Mist BKN004 51 48     89%     29.93        
Oct 22 13:53 3 1.75 Fog/Mist BKN003 52 49     89%     29.94 29.96      
Oct 22 13:37 WNW 3 1.5 Haze BKN003 53 48     83%     29.95        
Oct 22 12:53 NW 3 0.25 Fog/Mist OVC002 51 48     89%     29.96 29.98      
Oct 22 11:53 Calm 0.25 Fog/Mist VV002 48 47     96%     29.98 30      
Oct 22 10:53 Calm 0.25 Fog VV002 48 46     93%     29.99 30.01      
Oct 22 10:04 Calm 0.25 Fog VV001 47 46     97%     29.98        
Oct 22 09:53 Calm 0.12 Fog VV001 46 46     100%     29.99 30.01      
Oct 22 08:53 N 3 0.12 Clear   46 45     96% 45   29.99 30.01      
Oct 22 07:53 Calm 0.25 Fog VV001 45 43     93%     29.98 30.01      
Oct 22 06:53 N 3 0.12 Fog VV001 45 44     97% 44   29.98 30      
Oct 22 05:53 Calm 0.12 Fog VV001 46 44     93%     29.98 30      
Oct 22 04:53 Calm 0.12 Fog VV001 45 43     93%     29.98 30.01      
Oct 22 04:41 Calm 0.12 Fog VV001 45 44     97%     29.99        
Oct 22 03:53 Calm 0.25 Fog VV001 45 44     97%     30 30.01      
Oct 22 03:45 Calm 0.25 Fog VV001 45 43     93%     30        
Oct 22 02:53 Calm 0.12 Fog VV001 45 44     97%     30 30.02      
Oct 22 02:04 Calm 0.12 Fog VV001 45 44     97%     30        
Oct 22 01:53 SE 3 0.25 Fog BKN003 45 44     97% 44   30 30.02      
Oct 22 01:45 S 3 0.25 Fog BKN004 44 42     93% 43   30        
Oct 22 01:14 SSE 5 1 Fog/Mist SCT004 43 41     93% 40   30        
Oct 22 00:53 Calm 1 Fog/Mist BKN004 44 43     96%     30 30.02      
Oct 22 00:04 SSE 3 1 Fog/Mist BKN004 45 44     97% 44   30        
Oct 21 23:53 Calm 1.5 Fog/Mist FEW005 45 44     97%     29.99 30.01      
Oct 21 23:28 Calm 1.75 Fog/Mist FEW002 47 45     93%     29.99        
Oct 21 22:53 Calm 3 Fog/Mist FEW002 47 46     97%     29.99 30.01      
Oct 21 21:53 Calm 5 Fog/Mist FEW002 48 44     86%     30 30.02      
Oct 21 21:44 Calm 4 Fog/Mist FEW002 49 46     90%     30        
Oct 21 20:53 Calm 7 Clear CLR 48 44     86%     29.99 30.01      
Oct 21 19:53 Calm 7 Clear CLR 50 45     83%     30 30.02      
Oct 21 18:53 Calm 7 Clear CLR 50 46     86%     29.99 30.01      
Oct 21 17:53 Calm 8 Mostly Clear FEW120 53 46     77%     29.99 30.01      
Oct 21 16:53 Calm 4 Haze FEW120 55 47     74%     29.99 30.01      
Oct 21 15:53 WNW 5 4 Haze FEW007 54 47     77%     30 30.02      
Oct 21 14:53 W 5 4 Haze FEW007 53 47     80%     30 30.02      
Oct 21 14:16 Calm 3 Haze SCT007 55 47     74%     30.02        
Oct 21 13:53 Calm 3 Haze BKN007 53 47     80%     30.02 30.04      
Oct 21 13:51 Calm 3 Haze BKN007 54 46     77%     30.02        
Oct 21 13:11 Calm 2 Fog/Mist OVC004 51 46     83%     30.03        
Oct 21 12:53 Calm 1.75 Fog/Mist OVC003 50 46     86%     30.03 30.05      
Oct 21 12:33 Calm 1.5 Fog/Mist OVC001 49 46     90%     30.03        
Oct 21 12:22 Calm 1.25 Fog/Mist OVC001 49 46     90%     30.03        
Oct 21 11:53 NNW 5 0.5 Fog OVC001 48 46     93% 46   30.04 30.06      
Oct 21 11:22 Calm 0.5 Fog VV001 47 46     97%     30.03        
Oct 21 10:53 N 3 0.12 Fog VV001 47 45     93% 46   30.03 30.05      
Oct 21 09:53 NE 6 0.12 Fog VV001 46 45     96% 43   30.03 30.05      
Oct 21 08:53 5 0.12 Fog VV001 46 44     93% 44   30.03 30.05      
Oct 21 07:53 NE 5 0.12 Fog VV001 45 44     97% 43   30.02 30.04      
Oct 21 06:53 E 5 0.12 Fog VV001 45 44     97% 43   30.02 30.04      
Oct 21 05:53 NNE 5 0.12 Fog VV001 46 44     93% 44   30.02 30.04      
Oct 21 04:53 NNE 5 0.12 Fog VV001 46 45     96% 44   30.02 30.04      
Oct 21 03:53 ENE 6 0.12 Fog VV001 46 45     96% 43   30.03 30.04      
Oct 21 02:53 NE 3 0.12 Fog VV001 47 45     93% 46   30.03 30.06      
Oct 21 01:53 NE 7 0.12 Fog VV001 45 44     97% 41   30.04 30.06      
Oct 21 01:28 NNE 5 0.12 Fog VV001 46 44     93% 44   30.04        
Oct 21 00:53 NE 6 0.25 Fog VV001 45 44     97% 42   30.05 30.06      
Oct 21 00:36 ENE 5 0.25 Fog BKN001 46 44     93% 44   30.04        
Oct 21 00:19 E 3 2 Fog/Mist BKN001 47 44     90% 46   30.05        
Oct 21 00:13 NNE 5 3 Fog/Mist FEW001 46 44     93% 44   30.05        
Oct 20 23:53 NNE 5 3 Fog/Mist CLR 48 45     89% 46   30.05 30.07      
Oct 20 22:53 NNE 7 3 Fog/Mist CLR 48 45     89% 45   30.05 30.07      
Oct 20 21:53 NNE 8 5 Fog/Mist CLR 50 46     86%     30.05 30.07      
Oct 20 20:53 NNE 7 5 Haze CLR 51 46     83%     30.06 30.08      
Oct 20 19:53 NE 7 6 Haze CLR 52 46     80%     30.07 30.09      
Oct 20 18:53 ENE 6 7 Mostly Clear FEW020 53 46     77%     30.08 30.1      
Oct 20 17:53 NNE 9 7 Clear CLR 55 46     72%     30.08 30.1      
Oct 20 16:53 N 10 7 Clear CLR 57 46     67%     30.09 30.11      
Oct 20 15:53 6 7 Clear CLR 57 47     69%     30.11 30.13      
Oct 20 14:53 N 5 5 Haze SCT007 SCT010 55 47     74%     30.13 30.16      
Oct 20 13:53 N 6 3 Haze OVC006 53 47     80%     30.16 30.18      
Oct 20 12:53 N 9 3 Haze OVC006 53 47     80%     30.18 30.2      
Oct 20 11:53 NNE 9 1.5 Fog/Mist OVC005 51 47     86%     30.2 30.22      
Oct 20 11:29 N 8 1.5 Fog/Mist OVC003 50 47     89%     30.2        
Oct 20 11:22 N 10 1.5 Fog/Mist OVC001 50 46     86%     30.21        
Oct 20 10:53 N 8 0.5 Fog OVC001 49 46     90% 45   30.21 30.23      
Oct 20 09:53 N 8 0.5 Fog OVC001 48 46     93% 44   30.22 30.24      
Oct 20 09:14 N 7 0.5 Fog OVC001 48 46     93% 45   30.22        
Oct 20 08:53 NNE 9 0.5 Fog/Mist OVC003 48 46     93% 44   30.22 30.24      
Oct 20 08:35 NE 11 0.75 Fog/Mist OVC004 49 45     86% 44   30.22        
Oct 20 07:53 NNE 10 7 Mostly Cloudy BKN009 50 46     86%     30.23 30.25      
Oct 20 07:27 NNE 8 7 Mostly Cloudy BKN009 49 45     86% 45   30.23        
Oct 20 07:25 NNE 8 7 Mostly Cloudy BKN009 49 45     86% 45   30.23        
Oct 20 06:53 NNE 9 7 Clear CLR 48 45     89% 44   30.23 30.25      
Oct 20 05:53 NNE 9 6 Fog/Mist FEW003 49 45     86% 45   30.24 30.26      
Oct 20 04:53 NNE 8 6 Fog/Mist FEW004 48 45     89% 44   30.24 30.26      
Oct 20 03:53 NNE 9 6 Fog/Mist SCT004 49 46     90% 45   30.24 30.26      
Oct 20 03:00 N 6 3 Fog/Mist SCT004 46 44     93% 43   30.24        
Oct 20 02:53 N 6 3 Fog/Mist BKN004 46 44     93% 43   30.24 30.26      
Oct 20 01:53 N 3 3 Fog/Mist BKN003 47 44     90% 46   30.24 30.26      
Oct 20 01:43 NNW 3 4 Fog/Mist FEW003 47 45     93% 46   30.24        
Oct 20 00:53 NNW 3 6 Fog/Mist CLR 49 45     86% 48   30.24 30.26      
Oct 19 23:53 Calm 6 Fog/Mist CLR 49 45     86%     30.25 30.27      
Oct 19 22:53 NNW 3 6 Fog/Mist CLR 50 46     86%     30.25 30.27      
Oct 19 21:53 N 5 7 Clear CLR 51 46     83%     30.25 30.27      
Oct 19 20:53 N 7 7 Clear CLR 51 46     83%     30.25 30.28      
Oct 19 19:53 N 3 7 Clear CLR 52 47     83%     30.25 30.27      
Oct 19 18:53 WNW 3 7 Clear CLR 53 47     80%     30.25 30.27      
Oct 19 17:53 W 3 7 Clear CLR 57 48     72%     30.24 30.26      
Oct 19 16:53 WNW 5 7 Mostly Clear FEW010 60 49     67%     30.24 30.26      
Oct 19 15:53 WNW 3 7 Mostly Clear FEW010 FEW250 60 49     67%     30.25 30.27      
Oct 19 14:53 3 7 Mostly Clear FEW250 59 49     69%     30.26 30.28      
Oct 19 13:53 W 5 7 Mostly Clear FEW005 FEW250 57 48     72%     30.28 30.29      
Oct 19 12:53 W 3 5 Haze FEW003 SCT250 55 48     77%     30.29 30.31      
Oct 19 12:26 W 5 4 Haze FEW003 SCT250 53 48     83%     30.3        
Oct 19 11:53 WSW 5 2 Fog/Mist SCT003 SCT250 52 48     86%     30.3 30.32      
Oct 19 11:08 WSW 5 1.5 Fog/Mist BKN003 52 48     86%     30.3        
Oct 19 10:53 W 5 0.5 Fog/Mist BKN002 50 48     93%     30.3 30.32      
Oct 19 10:48 Calm 0.5 Fog/Mist BKN002 50 48     94%     30.3        
Oct 19 09:53 Calm 0.25 Fog VV001 49 48     97%     30.3 30.32      
Oct 19 08:53 Calm 0.5 Fog VV001 49 48     97%     30.29 30.31      
Oct 19 08:18 Calm 0.75 Fog/Mist BKN001 BKN250 47 46     97%     30.29        
Oct 19 07:53 Calm 2 Fog/Mist SCT001 BKN250 46 45     96%     30.28 30.29      
Oct 19 06:53 NW 3 2.5 Fog/Mist FEW002 FEW250 46 45     96% 45   30.27 30.28      
Oct 19 06:46 NW 3 2 Fog/Mist SCT002 47 46     97% 46   30.27        
Oct 19 06:36 NNW 3 0.5 Fog SCT002 48 47     96% 47   30.26        
Oct 19 05:53 Calm 0.5 Fog BKN001 46 44     93%     30.26 30.27      
Oct 19 05:48 Calm 2 Patchy Fog BKN001 46 43     87%     30.26        
Oct 19 04:53 S 3 6 Patchy Fog FEW002 46 43     89% 45   30.24 30.26      
Oct 19 03:53 Calm 7 Clear CLR 47 43     86%     30.24 30.26      
Oct 19 02:53 Calm 7 Partly Cloudy SCT250 47 44     90%     30.24 30.26      
Oct 19 01:53 SSE 3 7 Partly Cloudy SCT250 48 45     89% 47   30.24 30.26      
Oct 19 00:53 NE 3 8 Clear   50 46     86%     30.23 30.25      
Oct 18 23:53 Calm 8 Partly Cloudy SCT250 51 46     83%     30.22 30.24      
Oct 18 22:53 Calm 9 Partly Cloudy SCT250 53 48     83%     30.22 30.24      
Oct 18 21:53 Calm 10 Partly Cloudy SCT250 54 47     77%     30.22 30.24      
Oct 18 20:53 S 6 10 Mostly Cloudy BKN250 54 45     72%     30.21 30.23      
Oct 18 19:53 Calm 10 Mostly Cloudy BKN250 57 44     62%     30.21 30.23      
Oct 18 18:53 W 6 10 Mostly Cloudy BKN250 59 44     58%     30.19 30.21      
Oct 18 17:53 Calm 10 Mostly Cloudy BKN250 63 45     52%     30.18 30.2      
Oct 18 17:33 Calm 10 Mostly Cloudy BKN250 63 45     52%     30.18        
Oct 18 17:29 SW 3 1.75 Haze CLR 63 45     52%     30.18        
Oct 18 16:53 S 6 10 Mostly Cloudy BKN250 64 44     48%     30.18 30.2      
Oct 18 15:53 SSE 5 10 Mostly Cloudy BKN250 66 44     45%     30.18 30.2      
Oct 18 14:53 SSW 6 10 Partly Cloudy FEW200 SCT250 66 44     45%     30.19 30.21      
Oct 18 13:53 SW 3 10 Partly Cloudy FEW200 SCT250 65 43     45%     30.19 30.21      
Oct 18 12:53 SSW 8 10 Partly Cloudy FEW200 SCT250 62 44     52%     30.19 30.21      
Oct 18 11:53 SW 8 10 Mostly Cloudy BKN200 BKN250 59 44     58%     30.2 30.22      
Oct 18 10:53 SSW 8 10 Mostly Cloudy BKN190 BKN250 57 45     64%     30.19 30.21      
Oct 18 09:53 SSE 7 10 Mostly Cloudy BKN200 55 45     69%     30.19 30.2      
Oct 18 08:53 SSE 7 10 Mostly Cloudy FEW180 BKN240 51 41     68%     30.17 30.19      
Oct 18 07:53 SSE 7 10 Mostly Cloudy SCT180 BKN240 49 41     74% 46   30.16 30.18      
Oct 18 06:53 Calm 10 Mostly Cloudy BKN250 49 40     71%     30.15 30.17      
May 15 00:53 WSW 6 10 Mostly Clear FEW250 63 51     65%     29.89 29.9      
May 14 14:53 NW 8 10 Mostly Clear FEW050 FEW250 84 55     37%   83 29.9 29.91      
May 14 05:53 SSW 3 10 Mostly Clear FEW250 59 52     78%     29.96 29.97      
May 13 17:53 N 5 10 Mostly Clear FEW250 84 46     27%   82 29.9 29.91      
May 13 01:53 NE 7 10 Clear CLR 60 47     62%     29.97 29.98      
May 12 18:53 NNE 13 10 Mostly Clear FEW030 74 49     41%   73 29.98 29.99      
May 12 17:53 N 13 10 Mostly Clear FEW030 76 49     39%   75 29.99 30.01      
May 12 13:53 NNE 11 10 Clear   72 51     48%   71 30.07 30.08      
Jun 12 03:53 SW 7 10 Partly Cloudy SCT011 52 49     89%     30 30.02      
Jun 11 13:53 WSW 7 10 Partly Cloudy FEW040 SCT170 65 48     54%     30.02 30.04      
Jun 11 02:53 S 5 10 Mostly Cloudy SCT080 BKN180 53 49     86%     29.99 30.01      
Jun 10 15:53 WNW 10 10 Partly Cloudy SCT045 SCT200 66 41     40%     29.86 29.87      
Jun 07 10:53 W 7 10 Mostly Cloudy FEW120 BKN250 67 48     51%     29.78 29.79      
Jun 06 05:53 NNE 6 10 Partly Cloudy SCT140 SCT250 56 43     62%     30.01 30.03      
Jun 05 21:53 N 8 10 Mostly Cloudy BKN250 62 43     50%     30.06 30.07